GFSWCAN_prec_radar_162.txt.gz
Reflectivity
-19 10 14 -0 9 -3 -4 -20 -20 -20 -5 1 10 17 26 32 33 24 24 -20 -6 -19 -6 -20 -20 -20 -9 -20 -9 -3 6 7 15 12 14 2 2 -11 -0 -20 22 6 10 10 -0 14 12 -20 -19 34 13 -20 -20 -20
14 -5 13 11 -3 9 10 6 29 20 33 17 9 15 24 34 33 26 27 -9 -20 -14 10 -20 -20 -20 -20 -3 6 -20 9 -20 -10 8 -9 22 17 21 3 -6 5 19 -18 8 -20 -5 8 30 16 30 -20 -20 -20 -20
4 -20 8 10 -3 0 8 18 27 23 13 -1 11 23 34 35 12 22 21 21 4 1 -20 -20 -20 -20 -20 -20 -12 -11 -1 -13 2 -9 21 8 23 20 17 18 22 -13 -2 4 27 -12 -20 6 -12 -20 -20 -20 -20 -20
-20 2 12 -3 -20 -20 13 15 14 7 -6 36 34 36 33 19 20 -14 20 22 17 -6 2 -20 -20 -20 -20 -20 -20 -20 -20 -8 -8 12 17 13 9 4 17 3 21 20 33 22 16 -13 -18 2 16 -17 -20 -20 -20 -20
9 14 -11 2 2 14 9 33 27 6 5 31 31 31 19 20 -4 19 20 23 22 9 -8 -16 -20 -20 -20 -20 -20 -20 -20 -20 -0 15 -0 14 -0 1 -5 8 -20 -11 -20 15 -20 22 7 -20 -20 -20 -20 -20 -20 -20
14 11 8 3 4 -20 -2 34 35 15 19 32 22 12 13 11 10 19 22 15 9 -19 -12 -20 -20 -20 -20 -20 -4 2 3 8 12 14 -1 -1 -19 -5 14 -2 -15 -13 -5 -20 22 -20 33 -13 -20 -20 -20 -20 -20 -20
10 20 29 24 8 17 32 12 34 33 26 2 -12 5 12 25 16 24 22 0 -14 -4 -14 -7 -16 -20 -20 11 17 7 -12 14 15 -0 12 -13 11 13 31 -15 11 0 -20 17 24 -20 -11 -16 -20 -20 -20 -20 -20 -20
32 36 39 30 32 25 26 33 27 16 28 28 20 25 24 27 27 8 3 -14 -18 -17 -5 5 6 -7 -11 -3 10 -6 -7 18 7 4 22 11 -1 11 14 -20 -10 -20 4 -19 -20 -20 -20 -20 -20 -20 -20 -20 -20 -20
32 40 32 34 31 33 33 37 37 27 -1 8 17 30 32 25 -6 12 -20 -8 -12 3 12 7 -15 12 -1 -15 -7 -4 10 18 30 28 5 19 17 21 -20 -16 -20 -20 -20 -13 -20 -20 -20 -20 -20 -20 -20 -20 -20 -20
38 36 35 33 34 35 33 9 -18 10 20 26 10 -11 13 -11 -2 -19 -17 42 33 33 28 4 16 14 -19 -0 22 35 30 29 12 13 20 30 -15 -14 6 -20 -20 -20 -20 -20 -20 -20 -20 -20 -20 -20 -20 -20 -20 -20
-17 -4 1 -1 -4 -15 -20 -20 -18 -20 -20 -16 5 12 7 16 18 7 15 7 5 -4 -1 -11 -20 -13 17 20 29 30 29 28 22 24 10 11 -10 -20 -20 -20 -20 -20 -20 -18 -20 -20 -20 -20 -20 -20 -20 -20 -20 -20
-20 -20 -20 -20 -20 -20 -20 -20 -20 -5 -13 -16 -9 14 19 -1 16 -0 9 5 1 -0 -18 -6 9 5 3 2 34 26 33 15 6 -20 0 -20 -20 -20 -20 -20 -20 -20 -20 -20 -20 -4 -19 -20 -20 -20 -20 -20 -20 -20
-20 -20 -20 -20 -20 -20 -7 2 -15 -20 -20 -20 -13 -18 3 -3 8 3 16 4 19 -19 22 -7 -3 -8 1 -2 18 23 10 -4 -7 5 -5 -9 -20 -20 -20 -20 -20 -20 -20 -20 -20 -20 -19 -20 -20 -20 -20 -20 -20 -20
-9 -4 -1 3 -17 -14 -20 -19 -20 -20 -20 -19 -9 4 4 5 -0 4 13 6 2 5 -0 10 1 2 8 12 -5 8 17 1 1 3 -1 -13 -20 -20 -20 -20 -20 -20 -20 -20 -20 -20 -20 -20 -20 -20 -20 -20 -20 -20
-20 -20 -20 -20 -20 -20 -20 -20 -20 -18 -16 3 12 17 4 -3 -12 -10 -11 4 27 3 4 29 27 16 21 -1 12 -15 -16 -6 -20 10 -6 -11 -20 -14 -11 -20 -20 -20 -20 -20 -20 -20 -20 -20 -20 -20 -20 -20 -20 -20
12 12 11 8 9 -5 -20 -20 -20 -1 -4 6 3 7 1 5 4 7 1 -2 19 21 21 21 12 14 -16 1 -7 -12 -8 -0 0 -16 -4 -19 -20 -6 -3 -9 -10 -20 -20 -20 -20 -20 -20 -20 -20 -20 -20 -20 -20 -20
-8 4 4 -20 -20 -20 -20 -15 14 9 3 5 16 -14 3 15 4 6 25 26 22 32 26 -9 9 11 -19 5 -19 -18 -4 1 -16 -5 -1 -19 -20 -17 -11 -19 -20 -20 -20 -20 -20 -20 -20 -20 -20 -20 -20 -20 -20 -20
-20 -20 -20 -20 -20 -20 2 -19 10 1 -2 -15 19 1 -0 -1 2 11 21 -2 20 31 26 21 8 8 8 1 2 -0 -2 7 -4 -20 -1 -13 -18 -20 -17 -7 -18 -20 -20 -20 -20 -20 -20 -20 -20 -20 -20 -20 -20 -20
-9 -20 -20 -20 -20 11 15 -20 7 -8 9 -19 -18 -7 5 4 11 23 14 -20 -10 -11 -20 -20 -20 -9 -20 -1 3 -3 -6 -0 2 -16 -10 -0 -19 -12 -1 2 1 -4 -20 -20 -19 -15 -19 -20 -20 -20 -20 -20 -20 -20
-20 -20 -20 -20 -20 2 -19 -20 -9 3 2 3 -2 -5 -14 -3 -4 17 4 -20 -20 -20 -20 -20 -11 -1 -5 -1 -20 -11 2 -12 -7 2 -3 -1 5 -1 -11 -19 -20 -18 -12 -17 -20 -20 -20 -20 -20 -20 -20 -20 -20 -16
-20 -20 -20 -20 -20 -20 -20 -16 5 -1 -9 10 -0 9 5 5 -4 -1 -19 -17 4 -1 -4 1 -3 -2 -20 -4 -20 -7 -20 -19 -20 -8 -10 -3 9 -1 -20 -12 -15 4 -13 -7 -0 -0 -1 -20 -20 -20 -20 -20 -20 -20
-20 -20 -20 -20 -20 -20 -20 -20 2 -9 10 4 -13 6 13 12 -9 -20 -20 -20 -16 -3 4 1 2 -15 1 -13 -20 -20 -20 -20 -20 -11 -11 -6 -16 -17 -3 -19 -7 -14 -20 -11 -12 -20 -20 -20 -8 -20 -20 -14 -20 -20
-20 -20 -20 -20 -20 -20 -20 -20 5 4 -5 10 5 10 -7 3 -16 -20 -20 -20 -17 -9 3 -15 -20 -20 -20 -20 -20 -20 -20 -20 -20 -20 -20 -20 -20 -20 -8 -20 -20 -20 -4 -6 -18 11 -7 -20 -14 -16 -8 -19 -15 -6
-20 -20 -20 -20 -20 -20 -20 -20 -20 -20 -20 2 6 -20 -14 -20 -20 -20 -20 -20 -4 -2 -8 -20 -5 -20 -20 -20 -20 -20 -20 -20 -20 -20 -20 -20 2 -20 -20 -20 -20 -20 -10 2 -11 9 -2 3 6 8 -11 2 6 10
-20 -20 -20 -20 -20 -13 -20 -20 -20 -20 -20 -20 -20 -20 -5 -20 -20 -20 -20 -20 -19 4 -19 -20 -20 -20 -3 -19 -20 -20 -20 -20 -20 -20 -20 -20 -20 12 1 -19 -20 -20 -20 -20 -4 -16 -0 -17 4 -20 2 -20 -15 -19
-20 -20 -15 -3 5 -6 -8 1 -13 -15 -20 -20 -15 -10 -20 -15 -20 -20 -20 1 6 -18 6 6 -15 -20 -20 -20 -20 -20 -20 -20 -20 -3 -20 -20 -20 -20 -8 -10 3 -20 -20 4 3 1 -14 -20 -20 -9 5 -11 -8 -20
-20 -20 -20 -20 -20 -6 -2 -5 -20 -14 -10 -9 0 -6 -2 -20 -13 -19 -20 -10 0 -3 -20 -20 -20 -12 -20 -20 -20 -20 -20 -20 -20 -20 -20 -19 -20 -20 -11 -17 -9 -8 -16 4 2 -4 2 3 1 4 -15 15 -20 -20
-20 -20 -20 -20 -20 -20 -20 -15 0 -3 2 -2 -18 6 2 -3 -15 -6 -15 -6 3 -4 -20 -10 -20 -20 -20 -20 -2 -1 7 -10 -15 -5 -19 -16 -18 -3 -2 -17 4 2 3 5 6 5 3 -1 3 6 8 -17 -20 -20
-9 2 -8 -2 -20 -18 -18 -18 -9 -12 -20 -20 -5 4 -20 -20 -1 1 2 -0 -7 6 6 2 1 4 4 1 2 2 -6 -19 -20 -3 5 13 7 2 1 2 2 4 3 1 -1 2 -10 -9 -4 -4 6 -11 -10 -20
-20 -20 -20 -20 3 -20 5 8 5 -20 -20 -20 -20 -20 -20 -2 -3 -2 8 6 7 7 -4 -6 -1 11 2 10 -0 -5 -4 -4 -19 -20 -9 -14 0 4 -1 0 2 2 4 -0 1 -1 1 -14 -2 -16 -15 -11 -20 -20
-10 2 5 6 7 18 4 -7 -6 -10 -9 -17 -20 4 -19 -18 1 0 -8 -2 -4 -5 4 4 -1 5 5 -4 8 7 2 1 -4 -20 -20 1 6 -4 2 4 4 5 3 1 3 0 1 -8 -6 -10 -12 -20 -20 -20
2 5 7 -2 -12 13 8 2 16 7 -5 -1 -13 -20 -8 -3 -19 0 -19 -8 7 -0 -20 -11 7 -5 2 1 -17 -20 -19 -20 -20 -20 -20 -20 -19 -18 5 5 5 3 3 -2 -4 -5 -14 -5 -19 -20 -20 -20 -20 -20
-8 -0 5 3 9 8 9 10 17 -0 2 6 -1 1 -10 -4 -20 -3 -5 -17 -3 -2 2 3 3 -1 -16 -4 -8 -5 -19 -20 -20 -20 -20 -20 -20 -20 -18 -15 2 0 -2 -1 -2 -18 -20 -20 -20 -20 -20 -20 -20 -20

GFSWCAN_prec_radar_168.txt.gz
Reflectivity
12 -20 -20 -20 -20 -20 -20 -20 -20 -20 -20 -10 -13 -20 -20 -20 -20 14 9 24 14 25 15 9 -5 -20 -20 -20 -2 -9 12 3 13 -20 -20 -20 -20 -17 -20 -20 -20 -3 -12 -15 -7 12 -3 -20 -20 -20 -20 -20 -20 -10
8 -20 -20 -20 -20 -20 -20 -20 -3 5 -20 -20 13 -20 -20 -20 -20 4 2 14 17 40 23 6 -19 -20 -20 -20 -20 -18 -20 -20 -20 -19 -19 -20 -20 -20 17 10 19 6 -19 -13 -20 -19 -9 -20 -20 -20 -17 -20 -20 -20
-20 -20 -20 -20 -20 -16 15 9 13 16 12 14 15 11 -20 -20 -20 -11 23 19 31 37 24 31 -20 -7 16 2 -20 -20 -20 -20 20 21 -11 18 -14 -2 -2 -10 -1 15 18 17 -15 -16 -18 -20 -20 -11 11 16 -20 -20
-20 -20 -20 -7 -0 -20 -20 14 17 16 17 11 -0 -17 -20 -20 -20 -5 23 27 27 27 13 11 -20 -20 -17 4 -8 9 -12 -12 23 3 16 -3 2 -16 -20 -9 1 6 6 -11 17 15 -20 -10 -16 -20 -20 -20 -20 -20
-4 -20 -18 7 -3 -20 -19 20 20 -20 -10 -20 2 -20 -20 -7 -7 11 22 31 32 30 9 -16 -20 -20 -20 -20 -20 -20 -10 -4 -8 -20 -20 -20 -20 -20 -20 -20 -20 4 5 -20 -20 -20 -20 -20 -20 -20 -20 -20 -20 -20
-7 -20 -19 -16 -20 -20 -20 -19 16 16 15 14 19 -20 7 -11 11 24 39 39 37 38 -15 -20 -20 -20 -20 -20 -20 -20 -20 -20 -20 -20 -20 -20 -20 -20 -20 -20 -20 -20 -9 -20 -20 -20 -20 -20 -20 -20 -20 -20 -20 -20
-20 -10 -20 -20 -20 4 -20 -15 0 -12 17 21 0 -13 -18 12 19 36 30 25 14 -19 -20 -20 -20 -20 -20 -20 -20 -20 -20 -20 -20 -20 -20 -20 -14 11 -4 -18 -18 -12 -20 -20 -20 -20 -20 -20 -20 -20 -20 -20 -20 -20
12 -6 -20 6 4 -20 -20 -17 15 -16 16 25 30 23 8 20 22 35 31 -9 -18 -20 -20 -20 -20 -20 -20 -20 10 -20 11 -1 -13 -6 -8 -20 -8 -15 -8 -19 -20 -20 -20 -20 -20 -20 -20 -20 -20 -20 -20 -20 -20 -20
13 10 7 -20 3 11 -20 4 -10 2 15 17 -5 21 36 36 37 33 22 9 -4 -20 -20 -20 -20 -20 -20 -20 -20 -8 22 24 4 10 -20 -4 -16 -8 -20 -20 -20 -20 -20 -20 -20 -20 -20 -20 -20 -20 -20 -20 -20 -20
1 -20 -20 -5 -20 -20 -19 -12 3 36 35 10 28 34 28 27 12 1 -4 -17 -20 -12 -20 -19 -20 -20 -19 -16 -19 -20 -14 5 -19 -20 -11 12 -1 -20 -20 -20 -20 -20 -20 -20 -20 -20 -20 -20 -20 -20 -20 -20 -20 -20
22 8 -20 -18 0 20 7 22 40 40 14 26 16 20 20 19 -4 -19 -18 -20 -11 -17 -19 -20 -20 -20 -20 -20 -2 28 8 4 -0 -20 -7 7 -19 -16 -20 -20 -20 -20 -20 -20 -20 -20 -20 -20 -20 -20 -20 7 -19 12
20 21 25 32 24 29 26 33 24 7 -14 -20 18 23 -8 -4 -9 -5 -13 -20 -11 -20 -20 -20 -20 -20 -13 -12 -10 21 -16 -15 -14 28 -2 -15 -4 -6 -19 -19 -19 -20 -20 -20 -20 -20 -20 -20 -20 -20 -20 -20 -20 -20
29 31 27 27 24 22 16 2 4 -20 -20 -20 -20 -20 -20 -20 -20 -20 -20 2 -20 -20 -20 -17 -19 -20 8 -20 -20 2 21 17 31 25 19 -11 -20 -20 -20 -20 -20 -20 -20 -20 -20 -20 -20 -20 -20 -20 -19 -17 -15 -20
26 27 24 19 17 19 10 -13 -20 -20 -20 -20 -20 -20 -20 -20 -20 -20 -20 -20 -20 -20 8 -19 2 11 1 -6 -20 -20 -19 -12 -12 -14 -20 -20 -20 -20 -20 -20 -20 -20 -20 -20 -20 -20 -20 -20 -20 -20 -20 -20 -20 -20
-14 -19 -17 -18 -20 -20 -20 -20 -20 -20 -20 -20 -20 -20 -20 -20 -20 -7 -20 -20 -8 -19 -20 13 30 34 15 13 -17 -20 -2 -20 -20 -20 -20 -20 -20 -20 -20 -20 -20 -20 -20 -20 -20 -20 -20 -20 -20 -20 -20 -20 -20 -20
0 -11 -15 -15 -20 -20 -20 -20 -20 -20 -20 -20 -20 -20 -20 -20 -20 -20 -20 -20 -20 -20 -12 17 25 12 9 12 11 -13 -20 -20 -20 -20 -20 -20 -20 -20 -20 -20 2 -2 -20 -20 -20 -20 -20 -20 -20 -20 -20 -20 -20 -20
-20 -18 -8 -20 -20 -20 -20 -20 -20 -20 -20 -20 -20 -20 -20 -20 -19 -1 -16 0 -20 6 3 23 20 -20 -20 -13 6 -20 -20 -20 -20 -20 -20 -20 -20 -20 -20 -15 -18 -20 -20 -20 -20 -20 -20 -20 -20 -20 -20 -20 -20 -20
-20 -20 -20 -20 -20 -20 -20 -20 -20 -20 -20 -20 -20 -20 -20 -20 -20 -18 3 20 16 17 25 21 -6 -0 -1 -2 -20 -16 -1 5 -19 -20 -20 -20 -20 -20 -20 -20 -19 -20 -20 -20 -20 -20 -20 -20 -20 -20 -20 -20 -20 -20
-20 -20 -20 -20 -20 -20 -20 -20 -20 -20 -20 -20 -20 -20 -20 -20 7 20 18 28 31 32 29 23 13 -11 4 8 -9 -20 -20 -20 -20 -20 -20 -20 -20 -20 -20 -18 -20 -20 -20 -20 -20 -20 -18 -20 -20 -20 -20 -20 -20 -20
-20 -20 -20 -20 -20 -20 -20 -20 -20 -20 -20 -20 -20 -20 -20 -20 -20 17 24 27 29 14 7 7 3 -19 -20 -20 -20 -20 -20 -20 -20 -20 -19 -20 -20 -20 -20 -20 -20 -20 -20 -20 -20 -19 -20 -20 -20 -20 -20 -20 -20 -20
-20 -20 -20 -20 -20 -20 -20 -20 -20 -20 -20 -20 -20 -20 -20 -20 -20 -20 -20 -3 6 9 7 3 -13 -20 -20 -20 -20 -20 -20 -20 -20 -20 -20 -18 -17 -20 -20 -20 -20 -20 -20 -20 -20 -19 -13 -20 -20 -13 -20 -20 -20 -20
-20 -20 -20 -20 -20 -20 -20 -20 -20 -20 -20 -20 -20 -20 -20 -20 -20 -20 -20 -20 -20 -20 -20 -20 -20 -20 -19 -20 -20 -20 -20 -20 -20 -20 -20 -20 -20 -20 -20 -19 -20 -20 -20 -20 -20 -20 -20 -20 -20 -20 -20 -20 -5 -20
-20 -20 -20 -20 -20 -20 -20 -20 -20 -20 -20 -20 -20 -5 -20 -20 -20 -20 -20 -20 -20 -17 -20 -20 -20 -20 -20 -20 -20 -20 -20 -20 -20 -20 -20 -20 -20 -20 -20 -20 -20 -20 -20 -20 -19 -20 -20 -19 -20 -20 -20 -20 -20 -20
-20 -20 -20 -20 -20 -20 -20 -20 -20 -20 -20 -20 -5 -19 -20 -20 -20 -20 -20 -20 -20 -18 -20 -20 -20 -20 -20 -20 -20 -20 -17 -20 -20 -20 -20 -20 -20 -20 -20 -20 -20 -20 -20 -20 -20 -20 -20 -20 -20 -20 -20 -20 -20 -20
-20 -20 -20 -20 -20 -19 -20 -20 -20 -20 -20 -20 -20 -20 -20 -20 -20 -20 -20 -20 -20 -20 -20 -20 -20 -19 -10 -20 -20 -20 -20 -20 -20 -20 -20 -20 -19 -20 -20 -20 -20 -20 -20 -20 -20 -20 -20 -20 -20 -20 -20 -20 -20 -20
-20 -20 -20 -20 -20 -20 -20 -20 -20 -20 -20 -20 -20 -20 -20 -20 -20 -20 -20 -18 -17 -20 -20 -20 -20 -15 -8 -20 -20 -20 -20 -20 -20 -20 -20 -20 -20 -20 -20 -20 -20 -20 -20 -20 -20 -20 -20 -20 -20 -20 -20 -20 -20 -20
-20 -20 -20 -20 -20 -20 -20 -20 -20 -20 -20 -20 -20 -20 -20 -20 -20 -20 -20 -19 -20 -17 -20 -20 -20 -20 -20 -20 -20 -20 -20 -20 -20 -20 -20 -20 -20 -20 -20 -20 -20 -20 -20 -20 -20 -20 -20 -20 -20 -20 -20 -20 -20 -20
-20 -20 -20 -20 -20 -20 -20 -20 -20 -20 -20 -17 -20 -6 -20 -20 -20 -20 -20 -19 -20 -20 -20 -20 -20 -20 -20 -20 -20 -20 -20 -20 -20 -20 -20 -20 -20 -20 -20 -20 -20 -20 -20 -20 -20 -20 -20 -20 -20 -20 -20 -20 -20 -20
-20 -20 -20 -20 -20 -20 -20 -6 -1 -12 -17 -20 -20 -16 -6 -9 -15 -20 -20 -20 -20 -20 -20 -20 -20 -20 -20 -20 -20 -20 -20 -20 -20 -20 -20 -20 -20 -20 -20 -20 -20 -20 -20 -20 -20 -16 -20 -20 -20 -20 -20 -20 -20 -20
-20 -20 -20 -20 -20 -20 -20 -20 -20 -20 -20 -20 -20 -20 -20 -20 -20 -20 -20 -20 -20 -20 -17 -20 -20 -20 -20 -20 -20 -20 -20 -20 -20 -20 -20 -20 -20 -20 -20 -20 -20 -20 -20 -20 -20 -20 -20 -20 -20 -20 -20 -20 -20 -20
-20 -20 -20 -20 -20 -20 -20 -20 -20 -20 -20 -20 -20 -20 -20 -20 -20 -20 -20 -20 -20 -20 -20 -20 -20 -20 -20 -20 -15 -2 -20 -20 -20 -20 -20 -20 -20 -20 -20 -20 -20 -20 -20 -20 -20 -20 -20 -20 -20 -20 -20 -20 -20 -20
-20 -20 -20 -20 -20 -20 -20 -20 -20 -20 -20 -20 -20 -20 -20 -20 -20 -20 -20 -20 -20 -20 -20 -20 -11 -6 -16 -20 -20 -20 -20 -20 -20 -20 -20 -20 -20 -20 -20 -20 -20 -20 -20 -20 -20 -20 -20 -20 -20 -20 -20 -20 -20 -20
-20 -20 -20 -20 -20 -20 -20 -20 -20 -8 -6 -20 -20 -20 -20 -20 -20 -20 -20 -20 -20 -20 -20 -20 -20 -20 -20 -17 -20 -20 -20 -20 -20 -20 -20 -20 -20 -20 -20 -20 -20 -20 -20 -20 -20 -20 -20 -20 -20 -20 -20 -20 -20 -20

GFSWCAN_prec_radar_174.txt.gz
Reflectivity
-0 12 17 6 14 3 -20 -20 -20 -20 -20 -20 -20 -20 -19 -20 -20 -7 -20 -20 -7 -1 11 12 -3 -20 -2 23 7 -4 4 -20 -6 -16 -2 23 18 -14 -20 -20 -20 -10 7 -20 -20 1 -16 3 0 -20 -7 -20 -2 -2
11 6 17 18 21 9 -20 -20 -20 -20 -20 -20 -20 -20 4 9 -20 16 -15 -20 -20 12 -19 7 -16 -20 -18 -20 21 30 -18 -20 -16 -20 -20 -20 7 -20 -20 -20 -20 -20 -20 -20 -19 -20 -20 -16 -20 -20 -20 -20 3 -20
22 22 21 19 20 21 12 -20 -20 -20 -20 -20 -20 -20 -20 3 -17 11 -20 -20 3 4 -10 -20 -20 -20 -20 -20 19 17 22 -6 -19 16 25 -20 -20 -20 -20 -19 4 3 -3 2 -2 23 29 17 -2 15 8 -20 -20 -20
-7 -10 -2 16 24 15 14 -8 -20 -20 -20 -20 -20 -20 -20 -20 -11 14 -4 -20 -6 -6 -7 -20 -20 -20 -20 -20 -20 0 -3 26 -7 -10 33 18 -3 -8 -20 -20 -20 -10 -20 -20 -3 17 -0 9 9 16 -3 -6 -20 -20
-0 -9 -12 14 35 29 8 -20 -20 -20 -20 -20 -20 -20 -19 -20 -13 19 10 -20 -20 14 -6 -3 -19 -20 -20 -20 -20 -18 23 28 35 23 -2 20 2 -20 -20 -20 -20 -0 -14 -20 -20 -16 -20 -18 -19 -20 -20 -20 -20 -20
-20 -20 -19 7 14 9 9 -20 -20 -20 -20 -20 -20 -20 15 -6 20 14 -2 -20 -20 -20 -10 8 -20 -20 -20 -20 -20 15 15 12 34 -20 -20 -20 -20 -20 -20 -20 -20 -18 -19 -20 -20 -20 -20 -20 -20 -20 -20 -20 -20 -20
-20 -20 -20 -17 12 -20 -20 -20 -20 -20 -20 -20 -20 -5 18 -11 -9 -4 -20 -1 -6 -13 -20 13 -18 -20 -5 18 -10 -20 -20 -20 -20 -20 -20 -20 -20 1 -20 -14 -9 -6 -9 -20 -20 -20 -20 -20 -20 -20 -20 -20 -20 -20
-3 -20 -5 1 -20 -20 -20 -20 -7 -14 -20 -20 19 4 -20 -12 26 20 -20 -3 30 4 -20 14 -8 -20 -17 -5 -7 -10 -20 -20 -18 -20 -20 -20 -20 -14 -7 -16 -19 -19 -20 -20 -20 -20 -20 -20 -20 -20 -20 -20 -20 -20
-20 13 -20 -11 18 3 -17 -20 -11 -20 10 22 20 21 23 28 21 -20 -20 -20 12 39 18 18 3 -20 -20 -20 -20 2 -13 -6 0 10 -20 2 -20 -8 -16 -20 -19 -20 -20 -20 -20 -20 -20 -20 -20 -20 -20 -20 -20 -20
-20 -20 -20 -20 -20 -20 -20 -20 -20 19 21 22 5 1 17 9 -20 4 24 24 12 18 21 11 -17 -20 -20 -20 -20 -20 -20 -6 -9 -20 -6 -4 -18 -20 -20 -20 -20 -20 -20 -20 -20 -20 -20 -20 -20 -20 -20 -20 -20 -20
-20 -7 -20 -20 -20 -20 -20 -20 -14 22 24 23 26 11 16 -14 10 18 15 14 9 15 10 -18 -20 -20 -20 -20 -20 -20 -20 -17 9 -20 -20 -20 -20 -20 -20 -20 -20 -20 -20 -20 -20 -20 -20 -20 -20 -20 -20 -20 -20 -20
7 12 8 -4 -8 -20 -20 -20 -12 -12 -1 -6 -18 4 26 8 9 5 16 13 -3 -20 -20 -20 -20 -20 -20 -20 -20 5 -20 -20 -6 4 10 -17 -20 -14 -14 -20 -20 -20 -20 -20 -20 -20 -20 -20 -20 -20 -20 -20 -20 -20
-9 6 2 -1 -6 2 5 7 -20 -20 5 -15 17 33 18 8 22 10 -17 -20 -20 -20 -20 -20 -20 -20 9 -10 -20 -20 -20 -19 -20 -19 -20 -20 -20 -6 16 2 -4 8 2 7 -3 -20 -20 -20 -20 -20 -20 -20 -20 -20
-3 3 2 5 -10 -20 -20 9 7 11 33 28 27 20 -20 -9 -9 -20 -20 -20 -20 -20 -20 -20 -20 -20 -20 -6 -18 -4 -20 -20 -19 -20 -7 -20 -4 12 -6 -8 -20 -13 -18 -20 -20 -20 -20 -20 -20 -20 -20 -20 -20 -20
20 18 18 21 21 19 21 29 29 36 28 22 9 1 -20 -20 -18 -9 -20 -20 -4 -20 -19 10 5 -3 -3 -10 -20 -20 -20 -15 -20 -20 -20 -14 -20 -20 -20 -20 -20 -20 -20 -20 -20 -20 -20 -20 -20 -20 -20 -20 -20 -20
-10 -2 24 29 29 24 30 15 10 5 30 11 -18 -20 -20 -20 -20 -20 -20 -20 -20 -20 23 8 -8 13 11 14 17 1 -20 -20 -20 -20 -20 -20 -20 -20 -20 -20 -20 -20 -20 -20 -20 -20 -20 -20 -20 -20 -20 -20 -20 -20
25 31 27 24 12 -3 8 13 8 9 5 -20 -20 -20 -20 -20 -20 -20 -20 -20 -20 -20 -20 -20 -17 -20 -20 -10 -6 -7 -20 -16 -20 -20 -20 -20 -20 -20 -20 -20 -20 -20 -20 -20 -20 -20 -20 -20 -20 -20 -20 -20 -20 -20
-20 -20 -20 -11 2 5 9 8 6 1 -16 -20 -20 -20 -20 -20 -20 -20 -20 -20 1 1 -8 -18 -2 16 -11 4 -20 8 8 -16 -20 -20 -20 -20 -20 -20 -20 -20 -19 -17 -16 -19 -20 -20 -20 -20 -20 -20 -20 -20 -20 -20
-20 -20 -20 -20 -20 -20 -20 -20 -20 -20 -20 -20 -20 5 3 -20 -20 -20 3 -16 17 25 18 12 -6 9 -20 -20 -20 -20 -20 -20 -20 10 8 -13 -20 -20 -20 -19 -16 -17 -19 -20 -20 -20 -20 -20 -20 -20 -20 -20 -20 -20
-20 -20 -20 -20 -20 -20 -20 -20 -20 -20 -20 -20 -20 -20 -20 -20 -20 -20 -7 14 16 23 21 17 6 2 -20 -19 -20 -14 -17 -20 -20 -20 -7 -18 -20 -20 -20 -20 -20 -20 -20 -20 -20 -20 -20 -20 -20 -20 -20 -16 -20 -20
-20 -20 -20 -20 -20 -20 -20 -20 -20 -20 -20 -20 -20 -20 -20 -20 -20 -20 -20 8 16 17 16 20 21 22 20 9 4 -20 -20 -20 -20 -20 -20 -19 -16 -20 -19 -20 -20 -20 -20 -20 -20 -20 -20 -20 -20 -20 -20 -20 -20 -20
-20 -20 -20 -20 -20 -20 -20 -20 -20 -20 -20 -20 -20 -20 -20 -20 -20 -20 -20 -20 -14 8 11 13 16 15 16 16 13 9 6 2 -14 -20 -20 -20 -20 -20 -20 -20 -20 -20 -20 -20 -20 -20 -20 -20 -20 -20 -20 -20 -20 -20
-20 -20 -20 -20 -20 -20 -20 -20 -20 -20 -20 -20 -20 -20 -11 -4 -20 -20 -20 -20 -20 -20 -2 4 7 9 10 11 12 10 9 9 8 -4 -20 -20 -20 -20 -20 -20 -20 -20 -20 -20 -20 -20 -20 -20 -20 -20 -20 -20 -20 -20
-20 -20 -20 -20 -20 -20 -20 -20 -20 -20 -20 -20 -20 -20 -20 -16 -14 -20 -20 -20 -20 -20 -20 -20 -19 -16 -0 3 5 6 7 2 -10 -20 -20 -20 -20 -20 -20 -20 -20 -20 -20 -20 -20 -20 -20 -20 -20 -20 -20 -20 -20 -20
-20 -20 -20 -20 -20 -20 -20 -20 -20 -20 -20 -20 -20 -20 -20 -20 -20 -20 -20 -20 -20 -20 -0 -11 -20 -20 -20 -15 5 8 9 -0 -20 -20 -20 -20 -20 -20 -20 -20 -20 -20 -20 -20 -20 -20 -20 -20 -20 -20 -20 -20 -20 -20
-20 -20 -20 -20 -20 -20 -20 -20 -20 -12 -20 -20 -20 -20 -20 -20 -20 -20 -20 -20 -20 -20 -20 -20 -19 -20 -20 -18 2 6 3 -5 -20 -20 -20 -20 -20 -20 -20 -20 -20 -20 -20 -20 -20 -20 -20 -20 -20 -20 -20 -20 -20 -20
-20 -20 -20 -20 -20 -20 -20 -20 -20 -20 -20 -20 -20 -11 -13 -20 -20 -20 -20 -20 -20 -20 -20 -20 -20 -20 -19 -17 -17 -19 -20 -20 -20 -20 -20 -20 -20 -20 -20 -20 -20 -20 -20 -20 -20 -20 -20 -20 -20 -20 -20 -20 -20 -20
-20 -20 -20 -20 -20 -20 -20 -20 -20 -20 -20 -20 -20 -20 -20 -8 -16 -19 -18 -18 -18 -19 -20 -20 -20 -20 -20 -20 -20 -20 -20 -20 -20 -20 -20 -20 -20 -20 -20 -20 -20 -20 -20 -20 -20 -20 -20 -20 -20 -20 -20 -20 -20 -20
-20 -20 -20 -20 -20 -20 -20 -20 -20 -20 -20 -20 -20 -20 -20 -20 -20 -20 -20 -20 -20 -20 -20 -20 -20 -20 -20 -20 -20 -20 -20 -20 -20 -20 -20 -20 -20 -20 -20 -20 -20 -20 -20 -20 -20 -20 -20 -20 -20 -20 -20 -20 -20 -20
-20 -20 -20 -20 -20 -20 -20 -20 -20 -20 -20 -20 -20 -20 -20 -20 -20 -20 -20 -20 -20 -20 -20 -20 -20 -20 -20 -20 -20 -20 -20 -20 -20 -20 -20 -20 -20 -20 -20 -20 -20 -20 -20 -20 -20 -20 -20 -20 -20 -20 -20 -20 -20 -20
-20 -20 -20 -20 -20 -20 -20 -20 -20 -20 -20 -20 -20 -20 -20 -20 -20 -20 -20 -20 -20 -20 -20 -20 -20 -20 -20 -20 -20 -20 -20 -20 -20 -20 -20 -20 -20 -20 -20 -20 -20 -20 -20 -20 -20 -20 -20 -20 -20 -20 -20 -20 -20 -20
-20 -20 -20 -20 -20 -20 -20 -20 -20 -20 -20 -20 -20 -20 -20 -20 -20 -20 -20 -20 -20 -20 -20 -20 -20 -20 -20 -20 -20 -20 -20 -20 -20 -20 -20 -20 -20 -20 -20 -20 -20 -20 -20 -20 -20 -20 -20 -20 -20 -20 -20 -20 -20 -20
-20 -20 -20 -20 -20 -20 -20 -20 -20 -20 -20 -20 -20 -20 -20 -20 -20 -20 -20 -20 -20 -20 -20 -20 -20 -20 -20 -20 -20 -20 -20 -20 -20 -20 -20 -20 -20 -20 -20 -20 -20 -20 -20 -20 -20 -20 -20 -20 -20 -20 -20 -20 -20 -20

GFSWCAN_prec_radar_177.txt.gz
Reflectivity
17 3 11 7 13 14 18 -20 -20 -20 -20 -20 -20 -20 -20 -20 -20 -20 6 -20 -20 -20 -20 -17 -19 -20 -16 -7 4 28 2 -17 -18 1 11 2 -16 3 -7 -20 -20 -16 7 9 -10 13 -9 -17 -16 -20 -20 -20 -20 -20
10 14 24 28 6 -18 5 -20 -20 -20 -20 -20 -20 -20 -20 -20 -8 -13 0 -20 -20 9 -20 -20 -20 -20 -1 -15 18 5 1 28 15 -10 -19 -1 9 -20 -20 -20 -20 -4 -19 -20 -16 -6 -20 -20 -19 -20 -20 5 -20 -20
14 14 14 15 10 7 -17 8 -20 -20 -20 -20 -20 -20 -20 -20 8 -16 -16 -20 -20 -19 -20 -20 -20 -20 -20 -20 -20 17 5 12 14 28 11 -1 12 -20 -20 -20 -20 -20 -20 16 18 -18 -6 3 6 6 -9 -11 25 0
11 20 19 14 12 20 14 8 11 -20 -20 -20 -20 -20 -20 -20 -20 -5 -8 -20 -20 -7 10 -20 -20 -20 -20 -20 -20 -20 -20 9 6 13 37 15 19 5 -16 -20 -20 -20 -20 -1 -8 -11 -2 -19 -19 8 18 16 30 26
15 11 19 21 19 21 24 31 13 -20 -20 -20 -20 -20 -20 -19 -20 -2 -17 -20 -5 -9 -3 -5 -20 -20 -20 -20 -20 -20 -10 16 1 33 28 10 -20 -15 -20 -20 -20 -20 -17 -17 -20 -0 -16 -20 2 -20 -20 -5 -20 -20
-20 -20 -20 -20 -20 -19 -1 36 16 -20 -20 -20 -20 -20 -20 -20 5 15 -19 -20 -20 -20 8 -9 -20 -20 -20 -20 -20 -6 -14 24 28 23 34 20 -18 -20 -20 -20 -20 -20 3 5 -20 -20 -20 -20 -15 -20 -20 -20 -20 -20
15 13 15 9 -7 -9 26 35 18 -17 -20 -20 -20 -20 -20 13 -20 -20 -20 -16 -20 -14 -20 -20 -20 -20 -20 -20 -20 -15 25 23 25 31 11 -20 -20 -20 -20 -20 -20 -19 5 1 -20 -20 -20 -20 -20 -20 -20 -20 -20 -20
-20 -20 -20 -20 -20 19 -0 13 6 -20 -20 -20 -20 -20 0 -6 10 19 -20 2 12 12 -20 -20 -20 -20 -20 -20 -1 6 24 25 23 -20 -20 -20 -20 -20 -20 -20 -20 -20 -20 -20 -20 -20 -20 -20 -20 -20 -20 -20 -20 -20
-20 -20 -20 -20 -19 -17 -20 -20 -20 -20 13 -20 10 19 -9 13 15 -17 -20 -10 16 24 24 -14 -20 -20 -5 -14 10 25 -6 9 -20 -15 -20 -20 -20 -20 -20 -20 -20 -20 -20 -20 -20 -20 -20 -20 -20 -20 -20 -20 -20 -20
-20 -20 -20 -20 18 -5 -18 -20 -20 -19 20 21 -19 1 -13 -12 -2 -0 23 24 20 -15 -12 -1 21 -19 -12 -3 13 -11 -20 -9 14 -20 -20 9 -3 -20 -20 -20 -20 -20 -20 -20 -20 -20 -20 -20 -20 -20 -20 -20 -20 -20
-20 -20 -20 -19 -7 -20 -20 -12 -8 14 25 19 19 -20 -20 10 7 26 10 15 1 8 -2 -20 -20 12 -13 15 -19 -20 -20 -20 10 -20 -13 -18 -20 -20 -20 -20 -20 -20 -20 -20 -20 -20 -20 -20 -20 -20 -17 -20 -20 -20
-20 -20 -20 -20 -20 -20 -3 -17 -10 7 0 -16 -18 -7 26 38 6 17 -19 2 20 -9 -20 -20 -20 -20 -20 -20 1 11 -20 -20 -19 -14 6 -16 -20 -20 -20 -20 -20 -20 -20 -20 -20 -19 -20 -20 -3 -8 -20 -20 -20 -20
-6 -20 -20 -19 -19 5 -20 -19 4 -1 -20 13 27 17 26 -19 15 -20 3 15 -0 -19 -20 -20 -20 -20 3 -17 14 -3 -18 -12 -20 -1 -20 -20 -20 -20 -12 2 -17 -0 17 18 17 15 14 -3 -20 -20 -20 -20 -20 -20
-9 -18 12 12 -20 -20 -20 11 12 19 -3 2 -4 -3 24 -7 16 17 -5 -20 -20 -20 -15 -20 -20 -20 -12 -16 7 -18 -20 -9 -20 -20 -20 -20 -20 -20 -13 11 14 13 12 2 -20 -20 -20 -20 -20 -20 -20 -20 -20 -17
14 0 7 5 -2 18 19 20 20 -5 8 15 25 21 -8 -20 -20 -20 -20 -20 -20 -20 -20 -4 -13 -20 -7 -16 -16 -20 -20 -20 -20 -20 -20 -20 -20 -20 -20 -16 9 11 -20 -20 -20 -20 -20 -20 -20 -20 -20 -20 -20 -20
-2 9 -6 -7 8 13 1 19 16 24 31 21 22 -13 -20 -20 -20 -20 -20 -20 -20 -20 -8 -20 -18 1 1 -13 8 -15 -20 -20 -20 -20 -20 -20 -20 -20 -20 -20 -6 -20 -20 -16 -20 -20 -20 -20 -20 -20 -20 -20 -20 -20
-3 16 29 30 26 23 17 33 36 29 24 2 -4 3 -20 -14 -19 -20 -20 -20 -20 -20 -20 -20 -19 -20 -20 -16 -19 -20 -20 -20 -20 -18 -20 -20 -20 -20 -13 7 -2 -20 -20 -20 -20 -20 -20 -20 -20 -20 -20 -20 -20 -20
12 26 31 22 24 32 35 32 32 13 -20 -20 -20 -20 -20 -20 -20 -20 -20 -20 -19 -7 2 5 -16 -8 2 -18 -20 -20 -20 -20 -13 -20 -20 -20 -20 -15 -2 -20 -18 -18 -20 -20 -20 -20 -20 -20 -20 -20 -20 -20 -20 -20
-20 -20 -20 -8 -1 3 2 11 12 7 -2 -3 -17 -20 -17 -20 -3 -19 -14 -7 11 19 21 17 -4 -6 -20 -20 -20 -20 -20 -20 -17 5 -7 -1 -2 0 -20 -20 -19 -20 -20 -19 -19 -20 -20 -20 -20 -20 -20 -20 -20 -20
-20 -20 -20 -20 -20 -20 -20 -20 -20 -20 -20 -20 -20 -20 -20 -20 -20 -3 -6 -4 1 -14 9 12 -17 -20 -19 -20 -20 -18 -16 -11 -0 -7 -16 5 9 -17 -20 -20 -19 -19 -20 -20 -20 -20 -20 -20 -20 -20 -20 -20 -20 -20
-20 -20 -20 -20 -20 -20 -20 -20 -20 -20 -20 -20 -20 -20 -20 -20 -20 -20 -20 -11 8 12 4 -1 5 8 14 14 15 22 22 14 3 -17 -20 -12 3 -20 -20 -20 -20 -20 -20 -20 -20 -19 -20 -20 -20 -20 -20 -20 -20 -20
-20 -20 -20 -20 -20 -20 -20 -20 -20 -20 -20 -20 -20 -20 -20 -20 -20 -20 -20 -20 -20 -8 5 9 10 15 17 14 17 20 17 11 -2 -20 -10 -13 -20 -20 -20 -20 -20 -20 -20 -20 -20 -20 -20 -20 -20 -20 -20 -20 -20 -20
-20 -20 -20 -20 -20 -20 -20 -20 -20 -20 -20 -20 -20 -20 -19 12 16 -6 -15 -20 -7 -4 -10 5 4 4 10 13 16 15 13 7 7 10 8 -1 -11 -14 -20 -20 -20 -20 -20 -20 -20 -20 -20 -20 -20 -20 -20 -20 -20 -20
-20 -20 -20 -20 -20 -20 -20 -20 -20 -20 -20 -20 -20 -20 -20 -20 -20 -6 -20 -20 -18 -9 -5 1 -2 -8 3 9 7 4 4 7 6 6 9 3 -12 -19 -20 -20 -20 -20 -20 -20 -20 -20 -20 -20 -20 -20 -20 -20 -20 -20
-20 -20 -20 -20 -20 -20 -20 -20 -20 -20 -20 -20 -20 -20 -20 -20 -20 -20 -20 -20 -20 -20 -20 -20 -3 -6 -20 -15 2 5 5 4 4 4 6 2 -19 -20 -20 -20 -20 -20 -20 -20 -20 -20 -20 -20 -20 -20 -20 -20 -20 -20
-20 -20 -20 -20 -20 -20 -20 -20 -20 -20 -20 -20 -20 -20 -20 -20 -20 -20 -20 -20 -20 -20 -20 -20 -20 -20 -20 -19 -6 1 1 4 6 8 8 -16 -20 -20 -20 -20 -20 -20 -20 -20 -20 -20 -20 -20 -20 -20 -20 -20 -20 -20
-20 -20 -20 -20 -20 -20 -20 -20 -20 -20 -20 -20 -20 -20 -20 -0 -20 -20 -20 -20 -20 -20 -20 -20 -20 -20 -20 -17 -16 -16 -11 -0 4 6 7 -6 -20 -20 -20 -20 -20 -20 -20 -20 -20 -20 -20 -20 -20 -20 -20 -20 -20 -20
-20 -20 -20 -20 -20 -20 -20 -20 -20 -20 -20 -20 -20 -20 -20 -20 -20 -20 -20 -20 -20 -19 -20 -20 -20 -20 -20 -18 1 -1 -16 -20 -20 -19 -19 -20 -20 -20 -20 -20 -20 -20 -20 -20 -20 -20 -20 -20 -20 -20 -20 -20 -20 -20
-20 -20 -20 -20 -20 -20 -20 -20 -20 -20 -20 -20 -20 -20 -20 -20 -20 -20 -20 -20 -20 -20 -20 -20 -20 -20 -20 -20 -20 -20 -20 -20 -20 -20 -20 -20 -20 -20 -20 -20 -20 -20 -20 -20 -20 -20 -20 -20 -20 -20 -20 -20 -20 -20
-20 -20 -20 -20 -20 -20 -20 -20 -20 -20 -20 -20 -20 -20 -20 -20 -20 -20 -20 -20 -20 -20 -20 -20 -20 -20 -20 -20 -20 -20 -20 -20 -20 -20 -20 -20 -20 -20 -20 -20 -20 -20 -20 -20 -20 -20 -20 -20 -20 -20 -20 -20 -20 -20
-20 -20 -20 -20 -20 -20 -20 -20 -20 -20 -20 -20 -20 -20 -20 -20 -20 -20 -20 -20 -20 -20 -20 -20 -20 -20 -20 -20 -20 -20 -20 -20 -20 -20 -16 -20 -20 -20 -20 -20 -20 -20 -20 -20 -20 -20 -20 -20 -20 -20 -20 -20 -20 -20
-20 -20 -20 -20 -20 -20 -20 -20 -20 -20 -20 -20 -20 -20 -20 -20 -20 -20 -20 -20 -20 -20 -20 -20 -20 -20 -20 -20 -20 -20 -20 -20 -20 -20 -20 -20 -20 -20 -20 -20 -20 -20 -20 -20 -20 -20 -20 -20 -20 -20 -20 -20 -20 -20
-20 -20 -20 -20 -20 -20 -20 -20 -20 -20 -20 -20 -20 -20 -20 -20 -20 -20 -20 -20 -20 -20 -20 -20 -20 -20 -20 -20 -20 -20 -20 -20 -20 -20 -20 -20 -20 -20 -20 -20 -20 -20 -20 -20 -20 -20 -20 -20 -20 -20 -20 -20 -20 -20